Weather History for Moline, IL

Change the Weather History Date:

Sunday, March 10, 2013

  Actual Average Record
Temperature  
Mean Temperature 41 °F 36 °F  
Max Temperature 45 °F 46 °F 74 °F (1955)
Min Temperature 37 °F 27 °F -2 °F (1934)
Degree Days  
Heating Degree Days 24 29  
Month to date heating degree days 372 306  
Since 1 July heating degree days 5005 5104  
Cooling Degree Days 0 0  
Month to date cooling degree days 0 0  
Year to date cooling degree days 0 0  
Moisture  
Dew Point 41 °F    
Average Humidity 95    
Maximum Humidity 100    
Minimum Humidity 89    
Precipitation  
Precipitation 1.25 in 0.09 in 1.92 in (1990)
Month to date precipitation 2.02 0.88  
Year to date precipitation 7.42 3.97  
Snow  
Snow 0.00 in 0.20 in - ()
Month to date snowfall 5.2 1.7  
Since 1 July snowfall 29.1 28.4  
Snow Depth 1.00 in    
Sea Level Pressure  
Sea Level Pressure 29.67 in    
Wind  
Wind Speed 5 mph (SSE)    
Max Wind Speed 22 mph    
Max Gust Speed 28 mph    
Visibility 2 miles    
Events Fog , Rain    
T = Trace of Precipitation, MM = Missing Value Source: NWS Daily Summary

Daily Weather History Graph

Daily Weather History Graph

Search for Another Location

Airport:

Trip Planner

Search our weather history database for the weather conditions in past years. The results will help you decide how hot, cold, wet, or windy it might be!

Date:

Astronomy

Mar. 10, 2013 Rise Set
Actual Time 7:21 AM CDT 7:03 PM CDT
Civil Twilight 6:54 AM CDT 7:30 PM CDT
Nautical Twilight 6:22 AM CDT 8:03 PM CDT
Astronomical Twilight 5:49 AM CDT 8:35 PM CDT
Moon 6:22 AM CDT (3/10) 6:11 PM CDT (3/10)
Length of Visible Light 12h 36m
Length of Day
11h 41m
Waning Crescent, 2% of the Moon is Illuminated
Mar 10
Waning Crescent
Mar 11
New
Mar 19
First Quarter
Mar 27
Full
Apr 2
Last Quarter

Hourly Weather History & Observations

Time (CDT) Temp. Windchill Dew Point Humidity Pressure Visibility Wind Dir Wind Speed Gust Speed Precip Events Conditions
12:52 AM 44.1 °F 38.6 °F 41.0 °F 89% 29.76 in 4.0 mi South 10.4 mph - 0.13 in Rain Rain
1:52 AM 45.0 °F 39.7 °F 43.0 °F 93% 29.74 in 4.0 mi South 10.4 mph - 0.16 in Rain Rain
3:33 AM 44.6 °F 38.4 °F 42.8 °F 93% 29.72 in 4.0 mi South 12.7 mph 21.9 mph 0.08 in Rain Light Rain
3:47 AM 44.6 °F 40.2 °F 42.8 °F 93% 29.71 in 4.0 mi South 8.1 mph - 0.10 in Rain Light Rain
3:52 AM 44.1 °F 39.5 °F 43.0 °F 96% 29.72 in 4.0 mi South 8.1 mph - 0.11 in Rain Light Rain
4:34 AM 42.8 °F 37.0 °F 41.0 °F 93% 29.71 in 2.0 mi SSE 10.4 mph - 0.03 in Rain Light Rain
4:52 AM 42.1 °F 37.1 °F 41.0 °F 96% 29.72 in 2.5 mi SSE 8.1 mph - 0.07 in Rain Light Rain
5:11 AM 42.8 °F 38.0 °F 41.0 °F 93% 29.69 in 3.0 mi SE 8.1 mph - 0.01 in Rain Light Rain
5:52 AM 42.1 °F 35.2 °F 39.9 °F 92% 29.65 in 6.0 mi SSE 12.7 mph - 0.02 in   Scattered Clouds
6:04 AM 42.8 °F 39.3 °F 39.2 °F 87% 29.68 in 7.0 mi South 5.8 mph - N/A   Partly Cloudy
6:19 AM 42.8 °F 40.1 °F 39.2 °F 87% 29.70 in 7.0 mi Variable 4.6 mph - N/A   Mostly Cloudy
6:35 AM 42.8 °F - 39.2 °F 87% 29.70 in 7.0 mi Calm Calm - N/A   Overcast
6:52 AM 41.0 °F 37.1 °F 39.2 °F 93% 29.68 in 6.0 mi East 5.8 mph - N/A   Overcast
7:52 AM 39.0 °F 36.8 °F 37.9 °F 96% 29.73 in 3.0 mi East 3.5 mph - N/A   Overcast
8:52 AM 42.1 °F 37.7 °F 41.0 °F 96% 29.71 in 1.8 mi ENE 6.9 mph - N/A   Overcast
9:15 AM 41.0 °F 38.0 °F 41.0 °F 100% 29.70 in 1.0 mi East 4.6 mph - N/A   Overcast
9:52 AM 41.0 °F - 41.0 °F 100% 29.73 in 1.0 mi Calm Calm - N/A   Overcast
10:34 AM 42.8 °F - 41.0 °F 93% 29.71 in 0.8 mi Calm Calm - 0.01 in Rain Light Rain
10:52 AM 42.1 °F 38.4 °F 41.0 °F 96% 29.72 in 0.2 mi ENE 5.8 mph - 0.04 in Fog , Rain Rain
10:56 AM 42.8 °F 39.3 °F 41.0 °F 93% 29.70 in 0.5 mi ENE 5.8 mph - 0.01 in Fog , Rain Rain
11:18 AM 44.6 °F - 44.6 °F 100% 29.67 in 0.5 mi Calm Calm - 0.06 in Fog , Rain Light Rain
11:33 AM 42.8 °F - 41.0 °F 93% 29.70 in 0.2 mi Calm Calm - 0.07 in Fog , Rain Light Rain
11:36 AM 42.8 °F - 41.0 °F 93% 29.70 in 0.2 mi Calm Calm - 0.07 in Fog , Rain Light Rain
11:43 AM 42.8 °F - 41.0 °F 93% 29.69 in 0.2 mi Calm Calm - 0.07 in Fog , Rain Light Rain
11:52 AM 43.0 °F - 43.0 °F 100% 29.70 in 0.2 mi Calm Calm - 0.08 in Fog , Rain Rain
12:00 PM 44.6 °F 43.1 °F 42.8 °F 93% 29.69 in 0.2 mi NNE 3.5 mph - 0.03 in Fog , Rain Rain
12:21 PM 42.8 °F - 42.8 °F 100% 29.69 in 0.2 mi Calm Calm - 0.06 in Fog , Rain Rain
12:52 PM 42.1 °F 39.2 °F 42.1 °F 100% 29.70 in 0.2 mi ESE 4.6 mph - 0.14 in Fog , Rain Rain
1:00 PM 42.8 °F 41.1 °F 42.8 °F 100% 29.68 in 0.2 mi ENE 3.5 mph - 0.02 in Fog , Rain Rain
1:21 PM 42.8 °F - 42.8 °F 100% 29.67 in 0.2 mi Calm Calm - 0.07 in Fog , Rain Rain
1:52 PM 44.1 °F 41.5 °F 43.0 °F 96% 29.67 in 0.2 mi NE 4.6 mph - 0.17 in Fog , Rain Rain
2:44 PM 42.8 °F - 42.8 °F 100% 29.65 in 0.2 mi Calm Calm - 0.09 in Fog , Rain Light Rain
2:52 PM 42.1 °F - 42.1 °F 100% 29.65 in 0.2 mi Calm Calm - 0.10 in Fog , Rain Light Rain
3:42 PM 44.6 °F - 42.8 °F 93% 29.64 in 0.2 mi Calm Calm - 0.05 in Fog , Rain Light Rain
3:52 PM 44.1 °F 42.5 °F 43.0 °F 96% 29.65 in 0.2 mi NNE 3.5 mph - 0.05 in Fog , Rain Light Rain
4:52 PM 45.0 °F 41.2 °F 44.1 °F 97% 29.57 in 0.2 mi ENE 6.9 mph - 0.00 in Fog Fog
4:59 PM 44.6 °F 39.2 °F 42.8 °F 93% 29.57 in 0.5 mi East 10.4 mph - N/A Fog Fog
5:52 PM 42.1 °F 40.2 °F 42.1 °F 100% 29.60 in 0.5 mi South 3.5 mph - 0.02 in Fog , Rain Light Rain
6:06 PM 42.8 °F 36.6 °F 41.0 °F 93% 29.61 in 1.5 mi SW 11.5 mph - 0.01 in Rain Light Rain
6:27 PM 42.8 °F 40.1 °F 42.8 °F 100% 29.61 in 1.8 mi SSW 4.6 mph - 0.07 in Rain Rain
6:35 PM 42.8 °F - 42.8 °F 100% 29.60 in 1.2 mi Calm Calm - 0.08 in Rain Rain
6:52 PM 43.0 °F - 42.1 °F 97% 29.62 in 1.0 mi Calm Calm - 0.11 in Rain Light Rain
7:52 PM 39.9 °F - 39.9 °F 100% 29.62 in 1.0 mi Calm Calm - 0.03 in Rain Light Rain
7:59 PM 39.2 °F 37.0 °F 39.2 °F 100% 29.61 in 0.8 mi SSW 3.5 mph - 0.01 in Rain Light Rain
8:11 PM 39.2 °F 37.0 °F 39.2 °F 100% 29.62 in 0.8 mi SSW 3.5 mph - 0.01 in Rain Light Rain
8:19 PM 41.0 °F 38.0 °F 39.2 °F 93% 29.62 in 0.8 mi SSW 4.6 mph - 0.02 in Rain Light Rain
8:52 PM 41.0 °F 37.1 °F 41.0 °F 100% 29.63 in 1.2 mi SW 5.8 mph - 0.02 in   Overcast
9:27 PM 41.0 °F 35.8 °F 39.2 °F 93% 29.62 in 1.2 mi WSW 8.1 mph - N/A   Overcast
9:52 PM 39.9 °F 35.1 °F 39.0 °F 97% 29.64 in 1.2 mi West 6.9 mph - N/A   Overcast
10:52 PM 37.4 °F 33.8 °F 37.4 °F 100% 29.64 in 1.2 mi West 4.6 mph - N/A   Overcast
10:59 PM 37.4 °F 34.9 °F 37.4 °F 100% 29.64 in 2.0 mi West 3.5 mph - N/A   Overcast
11:01 PM 37.4 °F 34.9 °F 37.4 °F 100% 29.64 in 1.2 mi West 3.5 mph - N/A   Overcast
11:10 PM 37.4 °F 33.8 °F 37.4 °F 100% 29.64 in 0.5 mi WNW 4.6 mph - N/A Fog Fog
11:25 PM 39.2 °F - 37.4 °F 93% 29.63 in 0.2 mi Calm Calm - N/A Fog Fog
11:52 PM 37.9 °F - 37.0 °F 97% 29.65 in 0.2 mi Calm Calm - N/A Fog Fog
12:52 AM 37.0 °F - 37.0 °F 100% 29.64 in 0.2 mi Calm Calm - N/A Fog Fog